Location: Brno
(49.2000°N, 16.6333°E)
Time: 22:24:37
(UTC+01:00)

ISS - Pass Details

Date: 31 January 2019
Orbit: 403 x 411 km, 51.6° (Epoch: 20 February)

Event Time Altitude Azimuth Distance (km) Brightness Sun altitude
Rises 19:46:55 0° 288° (WNW) 2,341 1.2 -29.3°
Reaches altitude 10° 19:49:00 10° 289° (WNW) 1,480 -0.1 -29.6°
Enters shadow 19:49:38 15° 290° (WNW) 1,227 -0.6 -29.7°
